Location: ??
(31.9467°N, 34.8903°E)
Time: 18:11:01
(UTC+00:00)

CRYOSAT 2 - Pass Details

Date: 29 October 2020
Orbit: 715 x 724 km, 92.0° (Epoch: 30 November)

Event Time Altitude Azimuth Distance (km) Brightness Sun altitude
Rises 16:07:59 0° 10° (N) 3,122 7.5 -16.4°
Reaches altitude 10° 16:10:19 10° 14° (NNE) 2,199 6.7 -16.9°
Maximum altitude 16:15:06 57° 93° (E) 841 4.3 -17.9°
Drops below altitude 10° 16:19:51 10° 172° (S) 2,187 6.8 -18.9°
Sets 16:22:09 0° 176° (S) 3,104 7.7 -19.4°
